Regional Weather Roundup
Issued by NWS

Home | Current Version | Previous Version | Text Only | Print | Product List | Glossary Off
Versions: 1 2 3 4 5 6 7 8 9 10 11 12 13 14 15 16 17 18 19 20 21 22 23 24 25 26 27 28 29 30 31 32 33 34 35 36 37 38 39 40 41 42 43 44 45 46 47 48 49 50

651
ASUS43 KMKX 241121
RWRWI

WISCONSIN REGIONAL WEATHER ROUNDUP
NATIONAL WEATHER SERVICE MILWAUKEE/SULLIVAN WI
600 AM CDT FRI MAR 24 2017

NOTE: "FAIR" INDICATES FEW OR NO CLOUDS BELOW 12,000 FEET WITH NO
SIGNIFICANT WEATHER AND/OR OBSTRUCTIONS TO VISIBILITY.

WIZ001-002-006>008-014>016-023>028-241200-
NORTHWEST WISCONSIN

CITY           SKY/WX    TMP DP  RH WIND       PRES   REMARKS
SUPERIOR ARPT  CLOUDY    33  33 100 CALM      29.94R FOG
ASHLAND        CLOUDY    32  32 100 CALM      29.93R FOG
HAYWARD        CLOUDY    35  32  88 N3        29.90R FOG
SIREN          CLOUDY    33  33  99 N7        29.90S FOG     WCI  27
CUMBERLAND     CLOUDY    34  32  93 N5        29.88R FOG     WCI  30
RICE LAKE      CLOUDY    35  35  99 CALM      29.89R FOG
CHETEK         CLOUDY    35  35  99 CALM      29.87R FOG
LADYSMITH      CLOUDY    35  35  99 NE5       29.88S FOG     WCI  31
EAU CLAIRE     CLOUDY    38  37  97 N8        29.85R FOG     WCI  32
MENOMONIE      CLOUDY    38  37  94 N3        29.88R FOG
NEW RICHMOND   CLOUDY    36  36 100 NE6       29.88R FOG     WCI  31
OSCEOLA        CLOUDY    37  37 100 N3        29.92R FOG
$$

WIZ003>005-009-010-017-018-241200-
NORTH CENTRAL WISCONSIN

CITY           SKY/WX    TMP DP  RH WIND       PRES   REMARKS
MANITOWISH WTR LGT SNOW  32  32 100 CALM      29.86F
ARBOR VITAE    CLOUDY    34  33  96 CALM      29.86F FOG
WOODRUFF       CLOUDY    34  33  96 CALM      29.86F FOG
RHINELANDER    LGT RAIN  33  33 100 NE6       29.85F FOG     WCI  28
EAGLE RIVER    MIX PCPN  32  32 100 CALM      29.87F
LAND O LAKES   MIX PCPN  33  33 100 CALM      29.88F
PHILLIPS       LGT RAIN  33  33 100 CALM      29.86S
TOMAHAWK       RAIN      32  32  99 CALM      29.86F
MEDFORD        RAIN      34  33  98 E3        29.84S
MERRILL        LGT RAIN  33  33 100 NE3       29.86F
$$

WIZ029-030-035-036-043>047-241200-
CENTRAL WISCONSIN

CITY           SKY/WX    TMP DP  RH WIND       PRES   REMARKS
WAUSAU         LGT RAIN  34  34 100 CALM      29.87R FOG
MOSINEE        RAIN      36  36 100 NE6       29.84F WCI  31
MARSHFIELD     LGT RAIN  37  37 100 S6        29.83R FOG     WCI  32
STEVENS POINT  LGT RAIN  35  35 100 CALM      29.86R
WAUPACA        CLOUDY    38  35  91 CALM      29.87S FOG
WAUTOMA        CLOUDY    38  36  92 E3        29.88S
WISC RAPIDS    CLOUDY    38  38 100 CALM      29.87S FOG
CAMP DOUGLAS   CLOUDY    39  37  92 SE3       29.85F
$$

WIZ011>013-019>022-031-037>040-048>050-241200-
NORTHEAST WISCONSIN

CITY           SKY/WX    TMP DP  RH WIND       PRES   REMARKS
ANTIGO         CLOUDY    32  32 100 N9        29.83F FOG     WCI  24
SHAWANO        LGT RAIN  36  34  92 NE5       29.89S WCI  32
OCONTO         CLOUDY    34  34  98 NE3       29.89F
STURGEON BAY   CLOUDY    36  35  96 CALM      29.91S FOG
GREEN BAY      CLOUDY    37  36  96 CALM      29.89F FOG
MANITOWOC      CLOUDY    37  35  92 CALM      29.90F FOG
APPLETON       CLOUDY    37  36  93 CALM      29.87F
CLINTONVILLE   CLOUDY    34  32  93 CALM      29.87F FOG
OSHKOSH        CLOUDY    38  35  89 CALM      29.88F
$$

WIZ032>034-041-042-053>061-241200-
SOUTHWEST WISCONSIN

CITY           SKY/WX    TMP DP  RH WIND       PRES   REMARKS
LA CROSSE      CLOUDY    42  39  89 E8        29.82F
SPARTA         CLOUDY    38  37  97 SE6       29.83F WCI  34
VIROQUA        CLOUDY    41  39  93 E6        29.82R
BOSCOBEL       MOCLDY    42  37  82 E3        29.85S
PRAIRIE DU CHI PTCLDY    40  36  84 CALM      29.83S
PLATTEVILLE    CLOUDY    46  43  91 S10       29.82S
$$

WIZ056-057-062-063-064-067-068-241200-
SOUTH CENTRAL WISCONSIN

CITY           SKY/WX    TMP DP  RH WIND       PRES   REMARKS
REEDSBURG      CLOUDY    41  39  94 E3        29.86F
BARABOO/DELLS  CLOUDY    40  36  84 E5        29.86F
LONE ROCK      PTCLDY    40  37  89 S8        29.85S FOG     WCI  34
MINERAL POINT  CLOUDY    43  41  93 NW5       29.83R
MADISON        MOCLDY    42  38  85 N7        29.86R
MIDDLETON      PTCLDY    44  40  85 N8        29.86R
WATERTOWN      CLOUDY    42  40  90 N5        29.87R
MONROE         PTCLDY    45  41  87 S20       29.82S
JANESVILLE     CLOUDY    46  41  81 S6        29.85S
$$

WIZ051-052-058>065-066-070>072-241200-
SOUTHEAST WISCONSIN

CITY           SKY/WX    TMP DP  RH WIND       PRES   REMARKS
MILWAUKEE      CLOUDY    49  40  71 SW8       29.86S
WAUKESHA       CLOUDY    46  39  76 W7        29.86S
MILWAUKEE/TIMM CLOUDY    46  37  71 W3        29.87R
RACINE         CLOUDY    50  41  71 SW13      29.88S
KENOSHA        CLOUDY    50  41  71 SW13      29.88R
FOND DU LAC    CLOUDY    39  34  82 CALM      29.89R
SHEBOYGAN      CLOUDY    38  34  85 NE5       29.91R WCI  34
WEST BEND      CLOUDY    43  37  81 NE5       29.90R
JUNEAU         CLOUDY    41  37  85 N6        29.89R
$$

LSZ147-162-241200-
LAKE SUPERIOR

STATION/POSITION TIME  TEMP    WIND        PRES    WAVE
                       AIR SEA DIR/SP/G            HT/PER
                 (UTC) (F)     (DEG/KT/KT) (MB)    (FT/S)
DEVILS ISLAND    1100   33     250/  4/  5 1013.9R
PORT WING        1040   33     220/  2/  2 1013.2R
SAXON HARBOR     1040   33     170/  2/  4 1012.9R
$$

LMZ867-665-643>646-241200-
LAKE MICHIGAN

STATION/POSITION TIME  TEMP    WIND        PRES    WAVE
                       AIR SEA DIR/SP/G            HT/PER
                 (UTC) (F)     (DEG/KT/KT) (MB)    (FT/S)
CHAMBERS ISLAND  1040   35      40/  3/  8 1011.5F
NORTHPORT PIER   1030   36     170/  2/  4 1013.5R
KEWAUNEE LAKESHO 1054   36      50/  2/  4 1011.9F
SHEBOYGAN LAKESH 1100   36     360/  6/  6 1013.4R
PORT WASHINGTON  1030   39     340/  4/  6 1013.2R
MILWAUKEE LAKESH 1100   49     230/  9/ 10   N/A
KENOSHA   LAKESH 1100   51     200/  8/ 12 1011.9
$$

TC  - TEMPERATURE IN CELSIUS
VSB - VISIBILITY IN STATUTE MILES
WCI - WIND CHILL INDEX
HX  - HEAT INDEX





USA.gov is the U.S. government's official web portal to all federal, state and local government web resources and services.